Tracking 20242 objects as of 24-Jan-2020
HD Live streaming from Space Station
objects crossing your sky now

COSMOS 2251 DEB

Track COSMOS 2251 DEB now!
10-day predictions


NORAD ID: 37996
Int'l Code: 1993-036BQX
Perigee: 740.6 km
Apogee: 1,198.4 km
Inclination: 74.1 °
Period: 104.3 minutes
Semi major axis: 7340 km
RCS: 0.0038 m2 (small)
Launch date: June 16, 1993
Source: Commonwealth of Independent States (former USSR) (CIS)
Launch site: PLESETSK MISSILE AND SPACE COMPLEX (PKMTR)

Note: This is SATELLITE DEBRIS
aabbcc
Your satellite tracking list
Your tracking list is empty




NASA's NSSDC Master Catalog

Two Line Element Set (TLE):
1 37996U 93036BQX 20022.33223256 +.00001348 +00000-0 +90668-3 0  9995
2 37996 074.0728 256.9073 0311815 152.3097 209.5031 13.80434132262607
Source of the keplerian elements: AFSPC